Date,TemperatureHighF,TemperatureAvgF,TemperatureLowF,DewpointHighF,DewpointAvgF,DewpointLowF,HumidityHigh,HumidityAvg,HumidityLow,PressureMaxIn,PressureMinIn,WindSpeedMaxMPH,WindSpeedAvgMPH,GustSpeedMaxMPH,PrecipitationSumIn
2013-3-1,51.4,44.4,35.2,40.0,28.7,-99.9,79,62,43,29.83,29.73,8,1,0,0.00
2013-3-2,52.3,43.6,36.2,34.0,30.0,-99.9,84,63,43,29.84,29.72,11,1,0,0.00
2013-3-3,47.6,39.2,31.8,30.0,25.9,24.0,79,61,40,29.87,29.76,10,1,0,0.00
2013-3-4,48.8,38.6,29.4,31.0,20.1,14.0,68,50,27,30.04,29.87,13,3,0,0.00
2013-3-5,59.5,50.3,35.2,55.0,35.6,-99.9,88,64,42,30.06,29.59,10,1,0,0.01
2013-3-6,59.5,48.3,41.8,56.0,37.9,26.0,92,69,43,29.82,29.43,22,9,0,0.00
2013-3-7,55.4,46.0,39.5,34.0,29.7,-99.9,73,57,39,30.09,29.83,16,5,0,0.00
2013-3-8,54.4,44.9,34.0,31.0,24.8,-99.9,75,51,32,30.14,30.00,18,4,0,0.00
2013-3-9,61.2,48.6,36.8,36.0,28.8,-99.9,76,53,32,30.23,30.13,20,3,0,0.00
2013-3-10,61.8,48.2,32.4,47.0,37.9,30.0,94,71,37,30.25,30.19,11,1,0,0.00
2013-3-11,66.8,57.7,46.4,56.0,50.7,44.0,93,79,58,30.20,29.93,16,3,0,0.00
2013-3-12,61.0,59.2,55.7,60.0,57.5,55.0,98,94,83,29.94,29.71,14,4,0,0.85
2013-3-13,58.7,52.5,45.1,56.0,39.5,-99.9,95,65,37,29.98,29.80,11,2,0,0.00
2013-3-14,52.2,44.1,34.6,31.0,21.6,-99.9,60,44,30,30.14,29.99,16,3,0,0.00
2013-3-15,54.5,46.7,34.0,46.0,26.0,-99.9,74,54,31,30.13,29.91,17,3,0,0.00
2013-3-16,60.9,57.5,54.5,53.0,49.1,-99.9,84,77,69,29.91,29.68,16,5,0,0.00
2013-3-17,59.8,53.7,47.1,53.0,45.4,-99.9,95,81,69,30.09,29.79,16,4,0,0.00
2013-3-18,65.2,54.3,48.2,56.0,50.2,44.0,95,86,70,30.08,29.83,16,4,0,0.00
2013-3-19,67.1,58.3,53.2,58.0,51.4,-99.9,98,83,50,29.90,29.68,10,2,0,0.29
2013-3-20,56.5,50.9,43.1,42.0,23.5,-99.9,74,38,19,30.04,29.75,15,2,0,0.00
2013-3-21,53.3,43.0,33.8,36.0,28.9,-99.9,88,63,36,29.87,29.61,11,1,0,0.00
2013-3-22,48.8,39.1,27.3,36.0,22.5,14.0,65,52,34,30.02,29.88,10,2,0,0.00
2013-3-23,55.1,48.6,40.8,40.0,33.9,26.0,84,58,35,29.98,29.85,4,0,0,0.00
2013-3-24,58.0,48.9,42.8,56.0,45.4,37.0,96,88,64,29.88,29.35,16,4,0,0.35
2013-3-25,51.1,45.8,42.3,45.0,37.5,26.0,96,75,49,29.73,29.42,13,2,0,0.00
2013-3-26,49.2,43.6,35.5,32.0,28.6,26.0,70,57,44,30.00,29.74,9,1,0,0.00
2013-3-27,55.6,45.4,34.7,33.0,28.1,23.0,78,54,29,30.12,30.00,14,3,0,0.00
2013-3-28,55.3,44.9,34.3,31.0,26.7,24.0,70,51,30,30.18,30.07,11,1,0,0.00
2013-3-29,56.2,47.2,34.6,44.0,33.2,25.0,80,60,31,30.26,30.14,14,1,0,0.00
2013-3-30,61.5,54.4,48.5,49.0,45.2,40.0,86,72,48,30.18,30.08,7,1,0,0.00
2013-3-31,61.8,56.2,47.7,56.0,51.4,43.0,94,84,75,30.08,29.80,23,6,0,0.04